STARLINK-32350

Last updated on Mon Oct 14 2024 00:02:03 GMT+0000 (Coordinated Universal Time)

1 61063U 24164P 24287.58334491 -.01427353 00000+0 -37562-1 0 9993 2 61063 53.1594 318.5258 0001335 70.9298 122.7006 15.40979442 6014
UTC large
Height (km)
Speed (km/s)
/
Latitude / Longitude
Inclination (degrees)
Orbital Period (minutes)
Azimuth
Elevation
Range (km)
Doppler Factor

Next 0 passes for location: London (51.5072 / 0.1276)

Sorry there are no passes over London.